Location: Casaglia
(44.0333°N, 11.5167°E)
Time: 21:33:23
(UTC+00:00)

Envisat - Pass Details

Date: 01 August 2021
Orbit: 764 x 766 km, 98.2° (Epoch: 17 September)

Event Time Altitude Azimuth Distance (km) Brightness Sun altitude
Rises 03:04:36 0° 34° (NNE) 3,242 7.8 -9.6°
Reaches altitude 10° 03:08:28 10° 63° (ENE) 2,308 7.1 -9.1°
Maximum altitude 03:10:31 12° 88° (E) 2,142 6.3 -8.8°
Drops below altitude 10° 03:12:35 10° 112° (ESE) 2,300 6.0 -8.5°
Sets 03:16:23 0° 141° (SE) 3,219 6.3 -7.9°
